EJU76FR EDDL-LIMC

Flight info

Callsign EJU76FR
Flight time 1h 15m
Altitude 33000
Route KUMIK5Z KUMIK L603 BOMBI N850 RINEX DCT KRH DCT NATOR DCT TRA N850 DEGAD Z424 RIXUV
Aircraft A21N/M-SDE2E3FGHIJ1RWXY/LB1

Departure

Time 2026-05-05 15:56
Airport Düsseldorf Airport (EDDL)

Arrival

Time 2026-05-05 17:11
Airport Milan Malpensa International Airport (LIMC)
Time Latitude Longitude Altitude Speed Heading
2026-05-05 15:02 51.28047 6.76371 134 ft 0 kts 197°
2026-05-05 15:46 51.28066 6.76380 133 ft 4 kts 197°
2026-05-05 15:46 51.28086 6.76390 133 ft 4 kts 211°
2026-05-05 15:46 51.28096 6.76408 133 ft 4 kts 294°
2026-05-05 15:47 51.28079 6.76433 134 ft 5 kts 327°
2026-05-05 15:47 51.28070 6.76443 134 ft 0 kts 327°
2026-05-05 15:50 51.28070 6.76442 134 ft 1 kts 327°
2026-05-05 15:50 51.28082 6.76430 134 ft 4 kts 326°
2026-05-05 15:50 51.28105 6.76403 133 ft 5 kts 319°
2026-05-05 15:51 51.28131 6.76351 133 ft 7 kts 300°
2026-05-05 15:51 51.28162 6.76281 133 ft 9 kts 318°
2026-05-05 15:51 51.28205 6.76219 134 ft 9 kts 291°
2026-05-05 15:51 51.28177 6.76123 134 ft 11 kts 232°
2026-05-05 15:52 51.28125 6.76015 135 ft 13 kts 233°
2026-05-05 15:52 51.28065 6.75886 135 ft 15 kts 233°
2026-05-05 15:52 51.28003 6.75755 135 ft 12 kts 232°
2026-05-05 15:52 51.27953 6.75652 134 ft 8 kts 233°
2026-05-05 15:53 51.27942 6.75580 134 ft 7 kts 294°
2026-05-05 15:53 51.27979 6.75539 134 ft 7 kts 332°
2026-05-05 15:53 51.27988 6.75531 134 ft 0 kts 334°
2026-05-05 15:53 51.27989 6.75531 134 ft 0 kts 334°
2026-05-05 15:54 51.27996 6.75525 133 ft 2 kts 334°
2026-05-05 15:54 51.28016 6.75510 133 ft 4 kts 338°
2026-05-05 15:54 51.28050 6.75493 132 ft 6 kts 346°
2026-05-05 15:54 51.28095 6.75496 132 ft 3 kts 37°
2026-05-05 15:55 51.28117 6.75531 133 ft 6 kts 51°
2026-05-05 15:55 51.28198 6.75698 134 ft 48 kts 52°
2026-05-05 15:55 51.28544 6.76425 134 ft 113 kts 53°
2026-05-05 15:55 51.29098 6.77639 229 ft 148 kts 51°
2026-05-05 15:56 51.29707 6.78970 735 ft 149 kts 47°
2026-05-05 15:56 51.30374 6.80255 1287 ft 154 kts 50°
2026-05-05 15:56 51.31035 6.81748 1731 ft 175 kts 53°
2026-05-05 15:56 51.31800 6.83370 2381 ft 190 kts 51°
2026-05-05 15:57 51.32655 6.85074 3017 ft 206 kts 52°
2026-05-05 15:57 51.33570 6.87040 3448 ft 232 kts 54°
2026-05-05 15:57 51.34521 6.89240 4114 ft 248 kts 56°
2026-05-05 15:57 51.35235 6.91832 4729 ft 264 kts 80°
2026-05-05 15:58 51.35179 6.94808 5466 ft 272 kts 99°
2026-05-05 15:58 51.34847 6.97809 6340 ft 277 kts 102°
2026-05-05 15:58 51.34504 7.00882 7116 ft 283 kts 101°
2026-05-05 15:58 51.34165 7.04000 8014 ft 285 kts 101°
2026-05-05 15:59 51.33837 7.07138 8948 ft 288 kts 101°
2026-05-05 15:59 51.33517 7.10311 9876 ft 290 kts 101°
2026-05-05 15:59 51.33197 7.13537 10601 ft 298 kts 101°
2026-05-05 15:59 51.32853 7.16853 11321 ft 306 kts 102°
2026-05-05 16:00 51.32501 7.20257 12022 ft 316 kts 99°
2026-05-05 16:00 51.32258 7.23820 12622 ft 327 kts 97°
2026-05-05 16:00 51.32035 7.27446 13510 ft 329 kts 97°
2026-05-05 16:00 51.31786 7.31116 14239 ft 334 kts 98°
2026-05-05 16:01 51.31506 7.34819 14963 ft 337 kts 99°
2026-05-05 16:01 51.30986 7.38473 15674 ft 339 kts 113°
2026-05-05 16:01 51.29814 7.41720 16377 ft 339 kts 129°
2026-05-05 16:01 51.28311 7.44646 17099 ft 342 kts 132°
2026-05-05 16:02 51.26758 7.47561 17814 ft 346 kts 132°
2026-05-05 16:02 51.25200 7.50507 18473 ft 349 kts 131°
2026-05-05 16:02 51.23636 7.53498 19081 ft 352 kts 131°
2026-05-05 16:02 51.22064 7.56514 19685 ft 355 kts 131°
2026-05-05 16:03 51.20484 7.59554 20280 ft 358 kts 131°
2026-05-05 16:03 51.18889 7.62623 20845 ft 361 kts 131°
2026-05-05 16:03 51.17289 7.65724 21377 ft 364 kts 129°
2026-05-05 16:03 51.16060 7.69274 21871 ft 370 kts 114°
2026-05-05 16:04 51.15252 7.73184 22388 ft 374 kts 109°
2026-05-05 16:04 51.14556 7.77188 22889 ft 376 kts 108°
2026-05-05 16:04 51.13885 7.81226 23360 ft 379 kts 107°
2026-05-05 16:04 51.13223 7.85247 23727 ft 381 kts 107°
2026-05-05 16:05 51.12555 7.89341 24080 ft 383 kts 107°
2026-05-05 16:05 51.11888 7.93450 24427 ft 385 kts 107°
2026-05-05 16:05 51.11219 7.97594 24744 ft 387 kts 107°
2026-05-05 16:05 51.10554 8.01744 25029 ft 388 kts 107°
2026-05-05 16:06 51.09887 8.05925 25304 ft 390 kts 107°
2026-05-05 16:06 51.09207 8.10104 25553 ft 391 kts 111°
2026-05-05 16:06 51.08155 8.14058 25783 ft 387 kts 124°
2026-05-05 16:06 51.06482 8.17354 26007 ft 383 kts 140°
2026-05-05 16:07 51.04316 8.19774 26231 ft 380 kts 154°
2026-05-05 16:07 51.01896 8.21438 26474 ft 379 kts 161°
2026-05-05 16:07 50.99415 8.22876 26729 ft 381 kts 161°
2026-05-05 16:07 50.96921 8.24310 26980 ft 382 kts 161°
2026-05-05 16:08 50.94420 8.25744 27204 ft 383 kts 161°
2026-05-05 16:08 50.91912 8.27183 27428 ft 384 kts 161°
2026-05-05 16:08 50.89392 8.28629 27663 ft 385 kts 161°
2026-05-05 16:08 50.86880 8.30116 27876 ft 387 kts 160°
2026-05-05 16:09 50.84374 8.31686 28106 ft 388 kts 160°
2026-05-05 16:09 50.81860 8.33273 28313 ft 390 kts 160°
2026-05-05 16:09 50.79336 8.34858 28543 ft 391 kts 160°
2026-05-05 16:09 50.76802 8.36441 28779 ft 392 kts 160°
2026-05-05 16:10 50.74262 8.38023 28992 ft 392 kts 160°
2026-05-05 16:10 50.71723 8.39600 29179 ft 393 kts 160°
2026-05-05 16:10 50.69177 8.41179 29347 ft 394 kts 160°
2026-05-05 16:10 50.66625 8.42763 29486 ft 395 kts 161°
2026-05-05 16:11 50.64064 8.44351 29643 ft 395 kts 161°
2026-05-05 16:11 50.56374 8.49101 30183 ft 395 kts 160°
2026-05-05 16:12 50.53821 8.50675 30409 ft 393 kts 160°
2026-05-05 16:12 50.48751 8.53798 30796 ft 390 kts 160°
2026-05-05 16:13 50.41183 8.58445 31260 ft 389 kts 160°
2026-05-05 16:13 50.38664 8.59987 31425 ft 388 kts 160°
2026-05-05 16:13 50.36145 8.61528 31497 ft 390 kts 161°
2026-05-05 16:14 50.25964 8.67731 31913 ft 392 kts 160°
2026-05-05 16:15 50.22846 8.69629 32110 ft 391 kts 160°
2026-05-05 16:15 50.18859 8.72050 32303 ft 390 kts 160°
2026-05-05 16:16 50.13774 8.75132 32537 ft 389 kts 160°
2026-05-05 16:16 50.08719 8.78127 32730 ft 388 kts 163°
2026-05-05 16:17 50.03422 8.79168 32863 ft 387 kts 184°
2026-05-05 16:17 50.01658 8.78774 32942 ft 387 kts 189°
2026-05-05 16:18 49.96483 8.76930 33248 ft 380 kts 192°
2026-05-05 16:18 49.93068 8.75697 33592 ft 374 kts 191°
2026-05-05 16:18 49.88876 8.74231 33999 ft 365 kts 191°
2026-05-05 16:19 49.86413 8.73379 34234 ft 359 kts 191°
2026-05-05 16:19 49.83979 8.72536 34336 ft 357 kts 191°
2026-05-05 16:19 49.81555 8.71700 34370 ft 357 kts 191°
2026-05-05 16:20 49.71818 8.68715 34410 ft 357 kts 184°
2026-05-05 16:22 49.59428 8.67109 34452 ft 359 kts 184°
2026-05-05 16:23 49.49391 8.65771 34228 ft 368 kts 183°
2026-05-05 16:23 49.46826 8.65429 34121 ft 372 kts 183°
2026-05-05 16:23 49.41609 8.64734 33916 ft 381 kts 183°
2026-05-05 16:24 49.38950 8.64382 33798 ft 385 kts 183°
2026-05-05 16:24 49.36260 8.64028 33668 ft 390 kts 183°
2026-05-05 16:24 49.30780 8.63284 33414 ft 401 kts 184°
2026-05-05 16:25 49.27987 8.62848 33282 ft 406 kts 184°
2026-05-05 16:25 49.22374 8.61972 33019 ft 408 kts 184°
2026-05-05 16:25 49.19538 8.61536 32901 ft 410 kts 184°
2026-05-05 16:26 49.08155 8.59790 32821 ft 410 kts 184°
2026-05-05 16:27 49.02485 8.58922 32830 ft 409 kts 184°
2026-05-05 16:27 48.96845 8.57672 32840 ft 412 kts 190°
2026-05-05 16:28 48.91251 8.55864 32835 ft 413 kts 191°
2026-05-05 16:28 48.85639 8.54021 32829 ft 415 kts 190°
2026-05-05 16:29 48.80019 8.52199 32839 ft 413 kts 190°
2026-05-05 16:29 48.74386 8.50387 32847 ft 415 kts 191°
2026-05-05 16:30 48.68779 8.48588 32833 ft 413 kts 191°
2026-05-05 16:30 48.63146 8.46778 32835 ft 414 kts 191°
2026-05-05 16:31 48.57512 8.44976 32829 ft 415 kts 191°
2026-05-05 16:31 48.51877 8.43177 32832 ft 415 kts 191°
2026-05-05 16:32 48.46242 8.41386 32836 ft 415 kts 191°
2026-05-05 16:32 48.40608 8.39596 32839 ft 414 kts 191°
2026-05-05 16:33 48.34972 8.37808 32842 ft 413 kts 191°
2026-05-05 16:33 48.29339 8.36026 32822 ft 415 kts 191°
2026-05-05 16:34 48.23709 8.34255 32823 ft 415 kts 191°
2026-05-05 16:34 48.18063 8.32607 32820 ft 413 kts 186°
2026-05-05 16:35 48.15219 8.32552 32821 ft 416 kts 175°
2026-05-05 16:35 48.12363 8.33152 32831 ft 412 kts 172°
2026-05-05 16:35 48.06691 8.34600 32831 ft 413 kts 172°
2026-05-05 16:36 48.01011 8.36002 32831 ft 413 kts 172°
2026-05-05 16:36 47.95322 8.37378 32830 ft 415 kts 172°
2026-05-05 16:37 47.89687 8.38733 32836 ft 413 kts 173°
2026-05-05 16:37 47.84018 8.40098 32826 ft 414 kts 173°
2026-05-05 16:38 47.78350 8.41457 32831 ft 412 kts 173°
2026-05-05 16:38 47.72723 8.42801 32822 ft 411 kts 173°
2026-05-05 16:39 47.67026 8.43997 32855 ft 410 kts 177°
2026-05-05 16:39 47.61353 8.44829 32865 ft 411 kts 177°
2026-05-05 16:40 47.55671 8.45664 32873 ft 411 kts 177°
2026-05-05 16:40 47.49971 8.46495 32876 ft 411 kts 177°
2026-05-05 16:41 47.44331 8.47328 32877 ft 412 kts 178°
2026-05-05 16:41 47.38646 8.48166 32873 ft 411 kts 178°
2026-05-05 16:42 47.32971 8.48996 32879 ft 411 kts 178°
2026-05-05 16:42 47.27293 8.49820 32859 ft 411 kts 178°
2026-05-05 16:43 47.21614 8.50645 32862 ft 409 kts 178°
2026-05-05 16:43 47.15934 8.51473 32854 ft 408 kts 178°
2026-05-05 16:44 47.10295 8.52288 32853 ft 408 kts 178°
2026-05-05 16:44 47.04622 8.53112 32837 ft 408 kts 179°
2026-05-05 16:45 46.98967 8.53935 32849 ft 406 kts 179°
2026-05-05 16:45 46.93325 8.54746 32867 ft 408 kts 179°
2026-05-05 16:46 46.87696 8.55555 32900 ft 406 kts 179°
2026-05-05 16:46 46.82095 8.56360 32893 ft 404 kts 180°
2026-05-05 16:47 46.76485 8.57162 32895 ft 406 kts 180°
2026-05-05 16:47 46.70939 8.57954 32882 ft 400 kts 180°
2026-05-05 16:48 46.68209 8.58348 32331 ft 391 kts 180°
2026-05-05 16:48 46.65494 8.58735 31383 ft 393 kts 180°
2026-05-05 16:48 46.62783 8.59121 30753 ft 389 kts 181°
2026-05-05 16:48 46.60106 8.59503 30240 ft 382 kts 181°
2026-05-05 16:49 46.57476 8.59876 29700 ft 377 kts 181°
2026-05-05 16:49 46.54894 8.60247 29121 ft 371 kts 181°
2026-05-05 16:49 46.52319 8.60610 28595 ft 375 kts 181°
2026-05-05 16:49 46.49735 8.60977 28091 ft 372 kts 181°
2026-05-05 16:50 46.47186 8.61337 27641 ft 363 kts 181°
2026-05-05 16:50 46.46570 8.61401 27518 ft 360 kts 184°
2026-05-05 16:50 46.46000 8.61429 27391 ft 356 kts 186°
2026-05-05 16:50 46.43586 8.61070 26883 ft 343 kts 198°
2026-05-05 16:51 46.41378 8.59919 26338 ft 333 kts 210°
2026-05-05 16:51 46.39413 8.58238 25855 ft 324 kts 214°
2026-05-05 16:51 46.37518 8.56481 25415 ft 323 kts 215°
2026-05-05 16:51 46.35620 8.54731 24973 ft 322 kts 214°
2026-05-05 16:52 46.33730 8.53015 24521 ft 320 kts 214°
2026-05-05 16:52 46.31846 8.51314 24074 ft 319 kts 214°
2026-05-05 16:52 46.29969 8.49632 23578 ft 316 kts 213°
2026-05-05 16:52 46.27993 8.48220 23043 ft 318 kts 202°
2026-05-05 16:53 46.25827 8.47537 22566 ft 321 kts 188°
2026-05-05 16:53 46.23577 8.47628 22094 ft 323 kts 180°
2026-05-05 16:53 46.21340 8.47981 21626 ft 322 kts 179°
2026-05-05 16:53 46.19116 8.48345 21165 ft 320 kts 179°
2026-05-05 16:54 46.16909 8.48688 20745 ft 318 kts 179°
2026-05-05 16:54 46.14722 8.49015 20311 ft 316 kts 179°
2026-05-05 16:54 46.12570 8.49328 19883 ft 314 kts 179°
2026-05-05 16:54 46.10408 8.49854 19478 ft 318 kts 169°
2026-05-05 16:55 46.08322 8.50903 19093 ft 318 kts 165°
2026-05-05 16:55 46.06258 8.52050 18719 ft 317 kts 165°
2026-05-05 16:55 46.04203 8.53188 18344 ft 315 kts 164°
2026-05-05 16:55 46.02173 8.54300 17887 ft 309 kts 165°
2026-05-05 16:56 46.00153 8.55395 17526 ft 311 kts 165°
2026-05-05 16:56 45.98136 8.56485 17150 ft 308 kts 165°
2026-05-05 16:56 45.96126 8.57564 16786 ft 309 kts 165°
2026-05-05 16:56 45.94114 8.58644 16425 ft 308 kts 165°
2026-05-05 16:57 45.92111 8.59720 16055 ft 307 kts 164°
2026-05-05 16:57 45.90125 8.60845 15690 ft 308 kts 159°
2026-05-05 16:57 45.88296 8.62551 15391 ft 326 kts 147°
2026-05-05 16:57 45.86568 8.64569 15132 ft 314 kts 145°
2026-05-05 16:58 45.84901 8.66553 14877 ft 310 kts 146°
2026-05-05 16:58 45.83222 8.68522 14611 ft 311 kts 146°
2026-05-05 16:58 45.81545 8.70477 14253 ft 308 kts 146°
2026-05-05 16:58 45.79877 8.72415 13817 ft 308 kts 145°
2026-05-05 16:59 45.78207 8.74355 13422 ft 307 kts 145°
2026-05-05 16:59 45.76559 8.76221 13089 ft 304 kts 149°
2026-05-05 16:59 45.74764 8.77763 12794 ft 300 kts 155°
2026-05-05 16:59 45.72913 8.79178 12468 ft 295 kts 156°
2026-05-05 17:00 45.71132 8.80526 11941 ft 292 kts 155°
2026-05-05 17:00 45.69341 8.81887 11365 ft 291 kts 155°
2026-05-05 17:00 45.67568 8.83245 10907 ft 286 kts 155°
2026-05-05 17:00 45.65848 8.84566 10672 ft 273 kts 155°
2026-05-05 17:01 45.64203 8.85829 10370 ft 264 kts 154°
2026-05-05 17:01 45.62595 8.87061 9954 ft 261 kts 155°
2026-05-05 17:01 45.60921 8.87989 9446 ft 255 kts 169°
2026-05-05 17:01 45.59186 8.88481 8986 ft 254 kts 172°
2026-05-05 17:02 45.57446 8.88924 8712 ft 254 kts 172°
2026-05-05 17:02 45.55711 8.89372 8440 ft 253 kts 171°
2026-05-05 17:02 45.53987 8.89827 8165 ft 252 kts 171°
2026-05-05 17:02 45.52264 8.90287 7891 ft 251 kts 171°
2026-05-05 17:03 45.50549 8.90747 7636 ft 250 kts 171°
2026-05-05 17:03 45.49419 8.91051 7434 ft 247 kts 171°
2026-05-05 17:03 45.47733 8.91508 6993 ft 246 kts 170°
2026-05-05 17:03 45.46055 8.91964 6538 ft 245 kts 170°
2026-05-05 17:04 45.44386 8.92418 6115 ft 242 kts 169°
2026-05-05 17:04 45.42760 8.92860 5830 ft 234 kts 169°
2026-05-05 17:04 45.41159 8.92948 5610 ft 230 kts 193°
2026-05-05 17:04 45.39746 8.91933 5431 ft 230 kts 223°
2026-05-05 17:05 45.38891 8.90089 5253 ft 227 kts 251°
2026-05-05 17:05 45.38607 8.87894 5008 ft 224 kts 261°
2026-05-05 17:05 45.38585 8.85684 4545 ft 226 kts 282°
2026-05-05 17:05 45.39254 8.83642 4175 ft 230 kts 301°
2026-05-05 17:06 45.40151 8.81754 4004 ft 231 kts 303°
2026-05-05 17:06 45.41238 8.80084 3867 ft 231 kts 323°
2026-05-05 17:06 45.42664 8.79035 3746 ft 228 kts 340°
2026-05-05 17:06 45.44131 8.78469 3614 ft 212 kts 351°
2026-05-05 17:07 45.45509 8.78164 3597 ft 191 kts 348°
2026-05-05 17:07 45.46780 8.77826 3482 ft 183 kts 349°
2026-05-05 17:07 45.48030 8.77484 3333 ft 183 kts 349°
2026-05-05 17:07 45.49276 8.77141 3177 ft 181 kts 349°
2026-05-05 17:08 45.50513 8.76800 2965 ft 181 kts 349°
2026-05-05 17:08 45.51743 8.76461 2723 ft 180 kts 350°
2026-05-05 17:08 45.52964 8.76125 2478 ft 178 kts 350°
2026-05-05 17:08 45.54152 8.75798 2245 ft 172 kts 350°
2026-05-05 17:09 45.55281 8.75487 2015 ft 158 kts 350°
2026-05-05 17:09 45.56318 8.75201 1818 ft 149 kts 350°
2026-05-05 17:09 45.57328 8.74922 1611 ft 147 kts 350°
2026-05-05 17:09 45.58321 8.74648 1402 ft 144 kts 349°
2026-05-05 17:10 45.59301 8.74377 1205 ft 143 kts 349°
2026-05-05 17:10 45.60275 8.74109 1014 ft 142 kts 348°
2026-05-05 17:10 45.61242 8.73846 829 ft 141 kts 348°
2026-05-05 17:10 45.62184 8.73578 750 ft 126 kts 349°
2026-05-05 17:11 45.62851 8.73397 748 ft 77 kts 349°
2026-05-05 17:11 45.63303 8.73272 749 ft 58 kts 349°
2026-05-05 17:11 45.63551 8.73205 753 ft 21 kts 345°
2026-05-05 17:11 45.63690 8.73118 750 ft 23 kts 318°
2026-05-05 17:12 45.63771 8.73013 755 ft 24 kts 313°